Location: B�hl
(48.6968°N, 8.1352°E)
Time: 01:59:39
(UTC+00:00)

FALCON 9 DEB - Pass Details

Date: 08 March 2021
Orbit: 366 x 386 km, 53.0° (Epoch: 16 April)

Event Time Altitude Azimuth Distance (km) Brightness Sun altitude
Rises 19:16:22 0° 292° (WNW) 2,292 8.4 -19.5°
Reaches altitude 10° 19:18:32 10° 284° (WNW) 1,430 7.0 -19.8°
Maximum altitude 19:21:29 35° 217° (SW) 658 4.1 -20.3°
Enters shadow 19:21:40 34° 208° (SSW) 662 4.1 -20.3°
